Time,TemperatureF,DewpointF,PressureIn,WindDirection,WindDirectionDegrees,WindSpeedMPH,WindSpeedGustMPH,Humidity,HourlyPrecipIn,Conditions,Clouds,dailyrainin,SolarRadiationWatts/m^2,SoftwareType,DateUTC
2013-04-25 00:02:00,64.4,59.5,30.13,South,186,0.0,0.0,84,0.00,,,0.00,0.0,meteohub,2013-04-25 04:02:00,
2013-04-25 00:03:00,64.2,59.4,30.13,South,186,0.0,0.0,84,0.00,,,0.00,0.0,meteohub,2013-04-25 04:03:00,
2013-04-25 00:06:00,64.2,59.4,30.13,South,186,0.0,0.0,84,0.00,,,0.00,0.0,meteohub,2013-04-25 04:06:00,
2013-04-25 00:12:00,64.0,59.2,30.13,South,186,0.0,0.0,84,0.00,,,0.00,0.0,meteohub,2013-04-25 04:12:00,
2013-04-25 00:17:00,63.9,59.0,30.13,South,186,0.0,0.0,84,0.00,,,0.00,0.0,meteohub,2013-04-25 04:17:00,
2013-04-25 00:22:00,63.9,59.2,30.13,South,186,0.0,0.0,85,0.00,,,0.00,0.0,meteohub,2013-04-25 04:22:00,
2013-04-25 00:27:00,63.9,59.5,30.13,South,186,0.0,0.0,86,0.00,,,0.00,0.0,meteohub,2013-04-25 04:27:00,
2013-04-25 00:32:00,63.7,59.7,30.13,South,186,0.0,0.0,87,0.00,,,0.00,0.0,meteohub,2013-04-25 04:32:00,
2013-04-25 00:37:00,63.7,59.7,30.13,South,186,0.0,0.0,87,0.00,,,0.00,0.0,meteohub,2013-04-25 04:37:00,
2013-04-25 00:43:00,63.3,59.4,30.13,South,186,0.0,0.0,87,0.00,,,0.00,0.0,meteohub,2013-04-25 04:43:00,
2013-04-25 00:49:00,63.3,59.4,30.13,South,186,0.0,0.0,87,0.00,,,0.00,0.0,meteohub,2013-04-25 04:49:00,
2013-04-25 00:56:00,63.1,59.2,30.12,South,186,0.0,0.0,87,0.00,,,0.00,0.0,meteohub,2013-04-25 04:56:00,
2013-04-25 01:02:00,63.0,59.4,30.12,South,186,0.0,0.0,88,0.00,,,0.00,0.0,meteohub,2013-04-25 05:02:00,
2013-04-25 01:07:00,63.0,59.4,30.12,South,186,0.0,0.0,88,0.00,,,0.00,0.0,meteohub,2013-04-25 05:07:00,
2013-04-25 01:12:00,62.8,59.2,30.12,South,186,0.0,0.0,88,0.00,,,0.00,0.0,meteohub,2013-04-25 05:12:00,
2013-04-25 01:17:00,62.8,58.8,30.12,South,186,0.0,0.0,87,0.00,,,0.00,0.0,meteohub,2013-04-25 05:17:00,
2013-04-25 01:23:00,62.4,58.8,30.12,South,186,0.0,0.0,88,0.00,,,0.00,0.0,meteohub,2013-04-25 05:23:00,
2013-04-25 01:30:00,62.4,58.8,30.12,South,186,0.0,0.0,88,0.00,,,0.00,0.0,meteohub,2013-04-25 05:30:00,
2013-04-25 01:36:00,62.2,58.6,30.11,South,186,0.0,0.0,88,0.00,,,0.00,0.0,meteohub,2013-04-25 05:36:00,
2013-04-25 01:42:00,62.1,58.5,30.12,South,186,0.0,0.0,88,0.00,,,0.00,0.0,meteohub,2013-04-25 05:42:00,
2013-04-25 01:48:00,61.9,58.3,30.12,South,186,0.0,0.0,88,0.00,,,0.00,0.0,meteohub,2013-04-25 05:48:00,
2013-04-25 01:54:00,61.9,58.3,30.11,South,186,0.0,0.0,88,0.00,,,0.00,0.0,meteohub,2013-04-25 05:54:00,
2013-04-25 02:00:00,61.5,57.9,30.11,South,186,0.0,0.0,88,0.00,,,0.00,0.0,meteohub,2013-04-25 06:00:00,
2013-04-25 02:06:00,61.5,57.9,30.12,South,186,0.0,0.0,88,0.00,,,0.00,0.0,meteohub,2013-04-25 06:06:00,
2013-04-25 02:12:00,61.3,57.7,30.11,South,186,0.0,0.0,88,0.00,,,0.00,0.0,meteohub,2013-04-25 06:12:00,
2013-04-25 02:17:00,61.3,57.7,30.11,South,186,0.0,0.0,88,0.00,,,0.00,0.0,meteohub,2013-04-25 06:17:00,
2013-04-25 02:22:00,61.2,57.6,30.11,South,186,0.0,0.0,88,0.00,,,0.00,0.0,meteohub,2013-04-25 06:22:00,
2013-04-25 02:27:00,61.2,57.9,30.11,South,186,0.0,0.0,89,0.00,,,0.00,0.0,meteohub,2013-04-25 06:27:00,
2013-04-25 02:32:00,61.2,57.9,30.11,South,186,0.0,0.0,89,0.00,,,0.00,0.0,meteohub,2013-04-25 06:32:00,
2013-04-25 02:37:00,61.2,58.3,30.11,South,186,0.0,0.0,90,0.00,,,0.00,0.0,meteohub,2013-04-25 06:37:00,
2013-04-25 02:42:00,61.2,58.3,30.11,South,186,0.0,0.0,90,0.00,,,0.00,0.0,meteohub,2013-04-25 06:42:00,
2013-04-25 02:47:00,61.2,58.5,30.11,South,186,0.0,0.0,91,0.00,,,0.00,0.0,meteohub,2013-04-25 06:47:00,
2013-04-25 02:52:00,61.2,58.5,30.10,South,186,0.0,0.0,91,0.00,,,0.00,0.0,meteohub,2013-04-25 06:52:00,
2013-04-25 02:57:00,61.0,58.3,30.11,South,186,0.0,0.0,91,0.00,,,0.00,0.0,meteohub,2013-04-25 06:57:00,
2013-04-25 03:02:00,61.0,58.3,30.10,South,186,0.0,0.0,91,0.00,,,0.00,0.0,meteohub,2013-04-25 07:02:00,
2013-04-25 03:07:00,61.0,58.6,30.11,South,186,0.0,0.0,92,0.00,,,0.00,0.0,meteohub,2013-04-25 07:07:00,
2013-04-25 03:12:00,61.0,58.6,30.11,South,186,0.0,0.0,92,0.00,,,0.00,0.0,meteohub,2013-04-25 07:12:00,
2013-04-25 03:17:00,61.0,58.6,30.11,South,186,0.0,0.0,92,0.00,,,0.00,0.0,meteohub,2013-04-25 07:17:00,
2013-04-25 03:22:00,61.0,58.6,30.10,South,186,0.0,0.0,92,0.00,,,0.00,0.0,meteohub,2013-04-25 07:22:00,
2013-04-25 03:27:00,61.0,58.6,30.10,South,186,0.0,0.0,92,0.00,,,0.00,0.0,meteohub,2013-04-25 07:27:00,
2013-04-25 03:32:00,61.0,58.6,30.11,South,186,0.0,0.0,92,0.00,,,0.00,0.0,meteohub,2013-04-25 07:32:00,
2013-04-25 03:37:00,61.0,58.6,30.11,South,186,0.0,0.0,92,0.00,,,0.00,0.0,meteohub,2013-04-25 07:37:00,
2013-04-25 03:42:00,60.8,58.5,30.11,South,186,0.0,0.0,92,0.00,,,0.00,0.0,meteohub,2013-04-25 07:42:00,
2013-04-25 03:47:00,60.8,58.5,30.11,South,186,0.0,0.0,92,0.00,,,0.00,0.0,meteohub,2013-04-25 07:47:00,
2013-04-25 03:52:00,60.6,58.3,30.11,South,186,0.0,0.0,92,0.00,,,0.00,0.0,meteohub,2013-04-25 07:52:00,
2013-04-25 03:57:00,60.6,58.3,30.11,South,186,0.0,0.0,92,0.00,,,0.00,0.0,meteohub,2013-04-25 07:57:00,
2013-04-25 04:02:00,60.6,58.3,30.11,South,186,0.0,0.0,92,0.00,,,0.00,0.0,meteohub,2013-04-25 08:02:00,
2013-04-25 04:07:00,60.6,58.3,30.11,South,186,0.0,0.0,92,0.00,,,0.00,0.0,meteohub,2013-04-25 08:07:00,
2013-04-25 04:12:00,60.6,58.3,30.11,South,186,0.0,0.0,92,0.00,,,0.00,0.0,meteohub,2013-04-25 08:12:00,
2013-04-25 04:17:00,60.6,58.3,30.11,South,186,0.0,0.0,92,0.00,,,0.00,0.0,meteohub,2013-04-25 08:17:00,
2013-04-25 04:22:00,60.8,58.8,30.11,South,186,0.0,0.0,93,0.00,,,0.00,0.0,meteohub,2013-04-25 08:22:00,
2013-04-25 04:27:00,61.0,59.0,30.11,South,186,0.0,0.0,93,0.00,,,0.00,0.0,meteohub,2013-04-25 08:27:00,
2013-04-25 04:32:00,61.0,59.0,30.11,South,186,0.0,0.0,93,0.00,,,0.00,0.0,meteohub,2013-04-25 08:32:00,
2013-04-25 04:37:00,61.0,59.0,30.11,South,186,0.0,0.0,93,0.00,,,0.00,0.0,meteohub,2013-04-25 08:37:00,
2013-04-25 04:42:00,61.0,59.0,30.11,South,186,0.0,0.0,93,0.00,,,0.00,0.0,meteohub,2013-04-25 08:42:00,
2013-04-25 04:47:00,61.2,59.2,30.11,South,186,0.0,0.0,93,0.00,,,0.00,0.0,meteohub,2013-04-25 08:47:00,
2013-04-25 04:52:00,61.2,59.4,30.11,South,186,0.0,0.0,94,0.00,,,0.00,0.0,meteohub,2013-04-25 08:52:00,
2013-04-25 04:57:00,61.3,59.5,30.11,South,186,0.0,0.0,94,0.00,,,0.00,0.0,meteohub,2013-04-25 08:57:00,
2013-04-25 05:02:00,61.3,59.5,30.11,South,186,0.0,0.0,94,0.00,,,0.00,0.0,meteohub,2013-04-25 09:02:00,
2013-04-25 05:07:00,61.2,59.2,30.11,South,186,0.0,0.0,93,0.00,,,0.00,0.0,meteohub,2013-04-25 09:07:00,
2013-04-25 05:15:00,61.2,59.2,30.11,South,186,0.0,0.0,93,0.00,,,0.00,0.0,meteohub,2013-04-25 09:15:00,
2013-04-25 05:21:00,61.2,59.2,30.11,South,186,0.0,0.0,93,0.00,,,0.00,0.0,meteohub,2013-04-25 09:21:00,
2013-04-25 05:27:00,61.0,59.0,30.11,South,186,0.0,0.0,93,0.00,,,0.00,0.0,meteohub,2013-04-25 09:27:00,
2013-04-25 05:32:00,61.0,59.0,30.11,South,186,0.0,0.0,93,0.00,,,0.00,0.0,meteohub,2013-04-25 09:32:00,
2013-04-25 05:37:00,61.0,59.0,30.12,South,186,0.0,0.0,93,0.00,,,0.00,0.0,meteohub,2013-04-25 09:37:00,
2013-04-25 05:42:00,60.8,58.8,30.11,South,186,0.0,0.0,93,0.00,,,0.00,0.0,meteohub,2013-04-25 09:42:00,
2013-04-25 05:47:00,60.6,58.6,30.12,South,186,0.0,0.0,93,0.00,,,0.00,0.0,meteohub,2013-04-25 09:47:00,
2013-04-25 05:52:00,60.6,58.6,30.12,South,186,0.0,0.0,93,0.00,,,0.00,0.0,meteohub,2013-04-25 09:52:00,
2013-04-25 05:57:00,60.6,58.6,30.12,South,186,0.0,0.0,93,0.00,,,0.00,0.0,meteohub,2013-04-25 09:57:00,
2013-04-25 06:02:00,60.6,58.8,30.12,South,186,0.0,0.0,94,0.00,,,0.00,0.0,meteohub,2013-04-25 10:02:00,
2013-04-25 06:07:00,60.4,58.6,30.12,South,186,0.0,0.0,94,0.00,,,0.00,0.0,meteohub,2013-04-25 10:07:00,
2013-04-25 06:12:00,60.4,58.5,30.12,South,186,0.0,0.0,93,0.00,,,0.00,0.0,meteohub,2013-04-25 10:12:00,
2013-04-25 06:19:00,60.4,58.6,30.12,South,188,0.0,0.0,94,0.00,,,0.00,0.0,meteohub,2013-04-25 10:19:00,
2013-04-25 06:26:00,60.6,58.8,30.13,South,188,0.0,0.0,94,0.00,,,0.00,0.0,meteohub,2013-04-25 10:26:00,
2013-04-25 06:32:00,60.6,58.8,30.13,South,188,0.0,0.0,94,0.00,,,0.00,0.0,meteohub,2013-04-25 10:32:00,
2013-04-25 06:37:00,60.6,58.8,30.14,South,188,0.0,0.0,94,0.00,,,0.00,0.0,meteohub,2013-04-25 10:37:00,
2013-04-25 06:42:00,60.6,58.8,30.14,South,188,0.0,0.0,94,0.00,,,0.00,0.0,meteohub,2013-04-25 10:42:00,
2013-04-25 06:47:00,60.6,58.8,30.14,South,188,0.0,0.0,94,0.00,,,0.00,0.0,meteohub,2013-04-25 10:47:00,
2013-04-25 06:52:00,60.6,58.8,30.14,South,188,0.0,0.0,94,0.00,,,0.00,0.0,meteohub,2013-04-25 10:52:00,
2013-04-25 06:57:00,60.4,58.6,30.14,South,188,0.0,0.0,94,0.00,,,0.00,5.0,meteohub,2013-04-25 10:57:00,
2013-04-25 07:03:00,60.4,58.5,30.14,South,188,0.0,0.0,93,0.00,,,0.00,9.0,meteohub,2013-04-25 11:03:00,
2013-04-25 07:09:00,60.4,58.5,30.15,South,188,0.0,0.0,93,0.00,,,0.00,12.0,meteohub,2013-04-25 11:09:00,
2013-04-25 07:15:00,60.3,58.5,30.15,South,188,0.0,0.0,94,0.00,,,0.00,18.0,meteohub,2013-04-25 11:15:00,
2013-04-25 07:21:00,60.3,58.5,30.15,South,188,0.0,0.0,94,0.00,,,0.00,21.0,meteohub,2013-04-25 11:21:00,
2013-04-25 07:27:00,60.3,58.5,30.15,South,188,0.0,0.0,94,0.00,,,0.00,23.0,meteohub,2013-04-25 11:27:00,
2013-04-25 07:32:00,60.3,58.5,30.15,South,188,0.0,0.0,94,0.00,,,0.00,25.0,meteohub,2013-04-25 11:32:00,
2013-04-25 07:37:00,60.3,58.5,30.15,South,188,0.0,0.0,94,0.00,,,0.00,30.0,meteohub,2013-04-25 11:37:00,
2013-04-25 07:42:00,60.4,58.6,30.16,South,188,0.0,0.0,94,0.00,,,0.00,35.0,meteohub,2013-04-25 11:42:00,
2013-04-25 07:47:00,60.4,58.6,30.16,South,188,0.0,0.0,94,0.00,,,0.00,40.0,meteohub,2013-04-25 11:47:00,
2013-04-25 07:52:00,60.6,58.8,30.17,South,188,0.0,0.0,94,0.00,,,0.00,53.0,meteohub,2013-04-25 11:52:00,
2013-04-25 07:57:00,60.8,59.0,30.17,South,188,0.0,0.0,94,0.00,,,0.00,74.0,meteohub,2013-04-25 11:57:00,
2013-04-25 08:02:00,61.2,59.7,30.17,South,188,1.0,0.0,95,0.00,,,0.00,88.0,meteohub,2013-04-25 12:02:00,
2013-04-25 08:07:00,61.5,60.1,30.17,South,188,0.0,0.0,95,0.00,,,0.00,127.0,meteohub,2013-04-25 12:07:00,
2013-04-25 08:12:00,62.1,60.6,30.17,SSW,197,1.0,3.0,95,0.00,,,0.00,100.0,meteohub,2013-04-25 12:12:00,
2013-04-25 08:17:00,62.4,61.0,30.17,SSW,197,0.0,3.0,95,0.00,,,0.00,105.0,meteohub,2013-04-25 12:17:00,
2013-04-25 08:23:00,63.0,61.5,30.17,SW,235,0.0,3.0,95,0.00,,,0.00,114.0,meteohub,2013-04-25 12:23:00,
2013-04-25 08:29:00,63.3,61.9,30.17,SW,235,0.0,3.0,95,0.00,,,0.00,72.0,meteohub,2013-04-25 12:29:00,
2013-04-25 08:36:00,63.7,62.2,30.17,SW,235,0.0,2.0,95,0.00,,,0.00,72.0,meteohub,2013-04-25 12:36:00,
2013-04-25 08:42:00,64.0,62.6,30.17,SW,235,1.0,2.0,95,0.00,,,0.00,74.0,meteohub,2013-04-25 12:42:00,
2013-04-25 08:48:00,64.6,63.1,30.17,WSW,242,1.0,2.0,95,0.00,,,0.00,77.0,meteohub,2013-04-25 12:48:00,
2013-04-25 08:54:00,65.1,63.7,30.18,SW,235,1.0,2.0,95,0.00,,,0.00,81.0,meteohub,2013-04-25 12:54:00,
2013-04-25 09:00:00,65.7,64.2,30.17,SW,235,0.0,2.0,95,0.00,,,0.00,88.0,meteohub,2013-04-25 13:00:00,
2013-04-25 09:07:00,66.4,64.6,30.18,West,259,1.0,2.0,94,0.00,,,0.00,104.0,meteohub,2013-04-25 13:07:00,
2013-04-25 09:12:00,66.9,65.1,30.18,West,261,1.0,2.0,94,0.00,,,0.00,295.0,meteohub,2013-04-25 13:12:00,
2013-04-25 09:17:00,68.7,66.6,30.18,SW,225,0.0,2.0,93,0.00,,,0.00,417.0,meteohub,2013-04-25 13:17:00,
2013-04-25 09:22:00,70.9,67.1,30.19,West,260,0.0,4.0,88,0.00,,,0.00,274.0,meteohub,2013-04-25 13:22:00,
2013-04-25 09:27:00,71.8,67.1,30.19,West,260,1.0,4.0,85,0.00,,,0.00,190.0,meteohub,2013-04-25 13:27:00,
2013-04-25 09:32:00,71.8,66.7,30.19,West,260,0.0,4.0,84,0.00,,,0.00,257.0,meteohub,2013-04-25 13:32:00,
2013-04-25 09:37:00,71.8,66.4,30.18,WSW,244,0.0,4.0,83,0.00,,,0.00,411.0,meteohub,2013-04-25 13:37:00,
2013-04-25 09:42:00,72.5,66.7,30.18,WSW,244,0.0,1.0,82,0.00,,,0.00,512.0,meteohub,2013-04-25 13:42:00,
2013-04-25 09:47:00,73.0,67.3,30.18,WSW,257,0.0,1.0,82,0.00,,,0.00,557.0,meteohub,2013-04-25 13:47:00,
2013-04-25 09:52:00,73.8,67.3,30.19,North,350,1.0,1.0,80,0.00,,,0.00,594.0,meteohub,2013-04-25 13:52:00,
2013-04-25 09:57:00,73.8,66.0,30.19,NE,38,0.0,5.0,77,0.00,,,0.00,594.0,meteohub,2013-04-25 13:57:00,
2013-04-25 10:02:00,73.6,66.7,30.19,NW,311,1.0,5.0,79,0.00,,,0.00,529.0,meteohub,2013-04-25 14:02:00,
2013-04-25 10:07:00,74.8,66.7,30.19,NW,319,0.0,5.0,76,0.00,,,0.00,705.0,meteohub,2013-04-25 14:07:00,
2013-04-25 10:15:00,74.1,66.4,30.19,West,266,0.0,5.0,77,0.00,,,0.00,244.0,meteohub,2013-04-25 14:15:00,
2013-04-25 10:21:00,74.1,66.7,30.19,WSW,254,4.0,5.0,78,0.00,,,0.00,262.0,meteohub,2013-04-25 14:21:00,
2013-04-25 10:27:00,74.7,67.6,30.19,West,267,0.0,5.0,79,0.00,,,0.00,721.0,meteohub,2013-04-25 14:27:00,
2013-04-25 10:32:00,75.7,67.3,30.19,West,265,1.0,5.0,75,0.00,,,0.00,694.0,meteohub,2013-04-25 14:32:00,
2013-04-25 10:37:00,75.0,66.6,30.20,West,263,0.0,5.0,75,0.00,,,0.00,227.0,meteohub,2013-04-25 14:37:00,
2013-04-25 10:42:00,74.5,66.7,30.20,ENE,74,1.0,5.0,77,0.00,,,0.00,675.0,meteohub,2013-04-25 14:42:00,
2013-04-25 10:47:00,74.8,67.5,30.20,East,80,0.0,5.0,78,0.00,,,0.00,613.0,meteohub,2013-04-25 14:47:00,
2013-04-25 10:52:00,75.4,67.3,30.19,NW,306,0.0,4.0,76,0.00,,,0.00,745.0,meteohub,2013-04-25 14:52:00,
2013-04-25 10:57:00,75.9,68.2,30.20,West,279,1.0,4.0,77,0.00,,,0.00,761.0,meteohub,2013-04-25 14:57:00,
2013-04-25 11:02:00,76.1,68.0,30.20,West,271,0.0,4.0,76,0.00,,,0.00,914.0,meteohub,2013-04-25 15:02:00,
2013-04-25 11:07:00,76.3,67.8,30.20,West,271,0.0,4.0,75,0.00,,,0.00,374.0,meteohub,2013-04-25 15:07:00,
2013-04-25 11:12:00,76.3,66.9,30.20,West,263,0.0,5.0,73,0.00,,,0.00,838.0,meteohub,2013-04-25 15:12:00,
2013-04-25 11:19:00,76.8,67.1,30.20,WSW,250,0.0,5.0,72,0.00,,,0.00,786.0,meteohub,2013-04-25 15:19:00,
2013-04-25 11:25:00,77.7,68.0,30.19,West,267,0.0,5.0,72,0.00,,,0.00,853.0,meteohub,2013-04-25 15:25:00,
2013-04-25 11:32:00,79.0,68.0,30.19,West,266,0.0,6.0,69,0.00,,,0.00,919.0,meteohub,2013-04-25 15:32:00,
2013-04-25 11:37:00,78.1,67.5,30.19,SW,229,4.0,6.0,70,0.00,,,0.00,251.0,meteohub,2013-04-25 15:37:00,
2013-04-25 11:42:00,78.1,68.4,30.19,West,261,0.0,5.0,72,0.00,,,0.00,944.0,meteohub,2013-04-25 15:42:00,
2013-04-25 11:47:00,78.6,67.6,30.19,WSW,257,0.0,5.0,69,0.00,,,0.00,905.0,meteohub,2013-04-25 15:47:00,
2013-04-25 11:52:00,78.3,67.6,30.19,SW,226,2.0,5.0,70,0.00,,,0.00,912.0,meteohub,2013-04-25 15:52:00,
2013-04-25 11:57:00,78.4,66.9,30.19,West,279,1.0,5.0,68,0.00,,,0.00,991.0,meteohub,2013-04-25 15:57:00,
2013-04-25 12:02:00,78.6,67.1,30.19,WSW,257,4.0,4.0,68,0.00,,,0.00,309.0,meteohub,2013-04-25 16:02:00,
2013-04-25 12:07:00,78.1,66.7,30.19,West,260,0.0,4.0,68,0.00,,,0.00,401.0,meteohub,2013-04-25 16:07:00,
2013-04-25 12:12:00,78.4,66.2,30.19,SW,225,2.0,5.0,66,0.00,,,0.00,1093.0,meteohub,2013-04-25 16:12:00,
2013-04-25 12:17:00,79.2,66.7,30.19,South,180,1.0,5.0,66,0.00,,,0.00,1023.0,meteohub,2013-04-25 16:17:00,
2013-04-25 12:22:00,79.5,67.1,30.19,West,271,0.0,5.0,66,0.00,,,0.00,146.0,meteohub,2013-04-25 16:22:00,
2013-04-25 12:27:00,79.2,68.5,30.19,SW,231,1.0,5.0,70,0.00,,,0.00,1053.0,meteohub,2013-04-25 16:27:00,
2013-04-25 12:32:00,81.0,68.5,30.19,SW,234,1.0,5.0,66,0.00,,,0.00,1069.0,meteohub,2013-04-25 16:32:00,
2013-04-25 12:37:00,80.2,66.6,30.18,West,274,0.0,5.0,63,0.00,,,0.00,1039.0,meteohub,2013-04-25 16:37:00,
2013-04-25 12:42:00,81.0,68.0,30.18,West,277,5.0,5.0,65,0.00,,,0.00,1000.0,meteohub,2013-04-25 16:42:00,
2013-04-25 12:47:00,80.8,67.5,30.18,WSW,241,0.0,5.0,64,0.00,,,0.00,977.0,meteohub,2013-04-25 16:47:00,
2013-04-25 12:52:00,80.6,65.8,30.18,West,273,0.0,9.0,61,0.00,,,0.00,1013.0,meteohub,2013-04-25 16:52:00,
2013-04-25 12:57:00,81.5,66.7,30.18,West,272,0.0,9.0,61,0.00,,,0.00,1053.0,meteohub,2013-04-25 16:57:00,
2013-04-25 13:02:00,81.9,68.0,30.18,West,265,5.0,9.0,63,0.00,,,0.00,1132.0,meteohub,2013-04-25 17:02:00,
2013-04-25 13:07:00,81.1,66.0,30.18,WSW,238,0.0,9.0,60,0.00,,,0.00,485.0,meteohub,2013-04-25 17:07:00,
2013-04-25 13:12:00,80.8,66.6,30.18,NE,55,1.0,9.0,62,0.00,,,0.00,1288.0,meteohub,2013-04-25 17:12:00,
2013-04-25 13:17:00,82.0,66.7,30.18,West,280,1.0,9.0,60,0.00,,,0.00,621.0,meteohub,2013-04-25 17:17:00,
2013-04-25 13:22:00,81.0,66.2,30.18,SSW,203,0.0,9.0,61,0.00,,,0.00,468.0,meteohub,2013-04-25 17:22:00,
2013-04-25 13:27:00,81.1,66.4,30.18,SW,219,2.0,9.0,61,0.00,,,0.00,522.0,meteohub,2013-04-25 17:27:00,
2013-04-25 13:32:00,81.0,66.7,30.17,NNW,347,0.0,8.0,62,0.00,,,0.00,327.0,meteohub,2013-04-25 17:32:00,
2013-04-25 13:37:00,80.4,66.7,30.18,NNW,346,2.0,8.0,63,0.00,,,0.00,341.0,meteohub,2013-04-25 17:37:00,
2013-04-25 13:42:00,81.3,66.6,30.17,West,272,1.0,9.0,61,0.00,,,0.00,330.0,meteohub,2013-04-25 17:42:00,
2013-04-25 13:47:00,82.2,67.8,30.17,West,278,0.0,9.0,62,0.00,,,0.00,1130.0,meteohub,2013-04-25 17:47:00,
2013-04-25 13:53:00,83.1,67.8,30.17,WNW,292,1.0,10.0,60,0.00,,,0.00,1102.0,meteohub,2013-04-25 17:53:00,
2013-04-25 14:00:00,82.8,67.5,30.17,WSW,251,1.0,10.0,60,0.00,,,0.00,921.0,meteohub,2013-04-25 18:00:00,
2013-04-25 14:06:00,81.7,67.5,30.17,SW,222,2.0,10.0,62,0.00,,,0.00,965.0,meteohub,2013-04-25 18:06:00,
2013-04-25 14:12:00,82.6,69.1,30.17,SW,234,3.0,7.0,64,0.00,,,0.00,976.0,meteohub,2013-04-25 18:12:00,
2013-04-25 14:17:00,82.6,66.4,30.16,WSW,258,1.0,7.0,58,0.00,,,0.00,1037.0,meteohub,2013-04-25 18:17:00,
2013-04-25 14:22:00,82.8,68.0,30.16,West,271,2.0,7.0,61,0.00,,,0.00,1011.0,meteohub,2013-04-25 18:22:00,
2013-04-25 14:27:00,84.0,68.7,30.16,WNW,289,3.0,7.0,60,0.00,,,0.00,1013.0,meteohub,2013-04-25 18:27:00,
2013-04-25 14:32:00,83.1,66.4,30.16,West,269,0.0,6.0,57,0.00,,,0.00,158.0,meteohub,2013-04-25 18:32:00,
2013-04-25 14:37:00,82.2,68.4,30.16,West,269,2.0,6.0,63,0.00,,,0.00,1005.0,meteohub,2013-04-25 18:37:00,
2013-04-25 14:42:00,83.7,68.4,30.16,West,262,0.0,6.0,60,0.00,,,0.00,1071.0,meteohub,2013-04-25 18:42:00,
2013-04-25 14:47:00,82.9,65.7,30.16,WSW,250,0.0,6.0,56,0.00,,,0.00,244.0,meteohub,2013-04-25 18:47:00,
2013-04-25 14:52:00,83.1,67.3,30.16,NNW,337,0.0,5.0,59,0.00,,,0.00,1046.0,meteohub,2013-04-25 18:52:00,
2013-04-25 14:57:00,83.1,66.4,30.15,West,262,0.0,5.0,57,0.00,,,0.00,1053.0,meteohub,2013-04-25 18:57:00,
2013-04-25 15:04:00,82.8,67.5,30.15,West,261,1.0,6.0,60,0.00,,,0.00,422.0,meteohub,2013-04-25 19:04:00,
2013-04-25 15:10:00,82.6,66.4,30.15,West,260,1.0,6.0,58,0.00,,,0.00,285.0,meteohub,2013-04-25 19:10:00,
2013-04-25 15:17:00,81.9,66.6,30.15,WNW,296,0.0,6.0,60,0.00,,,0.00,353.0,meteohub,2013-04-25 19:17:00,
2013-04-25 15:22:00,82.8,66.6,30.14,ENE,66,0.0,6.0,58,0.00,,,0.00,953.0,meteohub,2013-04-25 19:22:00,
2013-04-25 15:27:00,83.8,67.5,30.14,WSW,248,3.0,6.0,58,0.00,,,0.00,895.0,meteohub,2013-04-25 19:27:00,
2013-04-25 15:32:00,82.8,66.6,30.14,West,268,0.0,5.0,58,0.00,,,0.00,128.0,meteohub,2013-04-25 19:32:00,
2013-04-25 15:38:00,81.7,66.4,30.14,SW,231,1.0,5.0,60,0.00,,,0.00,206.0,meteohub,2013-04-25 19:38:00,
2013-04-25 15:44:00,83.7,67.3,30.14,West,261,0.0,5.0,58,0.00,,,0.00,867.0,meteohub,2013-04-25 19:44:00,
2013-04-25 15:51:00,84.0,66.2,30.13,SW,216,1.0,6.0,55,0.00,,,0.00,849.0,meteohub,2013-04-25 19:51:00,
2013-04-25 15:57:00,83.7,66.7,30.13,WNW,300,1.0,6.0,57,0.00,,,0.00,882.0,meteohub,2013-04-25 19:57:00,
2013-04-25 16:03:00,83.7,66.4,30.13,West,272,0.0,7.0,56,0.00,,,0.00,316.0,meteohub,2013-04-25 20:03:00,
2013-04-25 16:09:00,84.6,68.2,30.12,West,268,6.0,7.0,58,0.00,,,0.00,749.0,meteohub,2013-04-25 20:09:00,
2013-04-25 16:15:00,83.8,67.5,30.12,West,261,2.0,6.0,58,0.00,,,0.00,717.0,meteohub,2013-04-25 20:15:00,
2013-04-25 16:22:00,83.7,66.4,30.12,WSW,238,0.0,8.0,56,0.00,,,0.00,710.0,meteohub,2013-04-25 20:22:00,
2013-04-25 16:27:00,84.0,66.2,30.12,West,274,0.0,8.0,55,0.00,,,0.00,689.0,meteohub,2013-04-25 20:27:00,
2013-04-25 16:32:00,84.0,66.2,30.12,WNW,289,0.0,6.0,55,0.00,,,0.00,376.0,meteohub,2013-04-25 20:32:00,
2013-04-25 16:37:00,83.7,67.8,30.12,West,274,2.0,6.0,59,0.00,,,0.00,675.0,meteohub,2013-04-25 20:37:00,
2013-04-25 16:43:00,83.5,65.7,30.12,WSW,252,3.0,7.0,55,0.00,,,0.00,696.0,meteohub,2013-04-25 20:43:00,
2013-04-25 16:49:00,83.1,65.8,30.12,West,279,0.0,7.0,56,0.00,,,0.00,367.0,meteohub,2013-04-25 20:49:00,
2013-04-25 16:55:00,82.6,65.8,30.12,West,264,0.0,6.0,57,0.00,,,0.00,190.0,meteohub,2013-04-25 20:55:00,
2013-04-25 17:02:00,82.0,66.7,30.12,West,264,5.0,6.0,60,0.00,,,0.00,137.0,meteohub,2013-04-25 21:02:00,
2013-04-25 17:07:00,81.7,66.9,30.12,WSW,250,1.0,6.0,61,0.00,,,0.00,153.0,meteohub,2013-04-25 21:07:00,
2013-04-25 17:12:00,81.3,66.6,30.12,West,269,0.0,6.0,61,0.00,,,0.00,192.0,meteohub,2013-04-25 21:12:00,
2013-04-25 17:17:00,81.3,66.6,30.12,West,269,0.0,6.0,61,0.00,,,0.00,209.0,meteohub,2013-04-25 21:17:00,
2013-04-25 17:22:00,81.5,65.8,30.12,WSW,258,0.0,6.0,59,0.00,,,0.00,243.0,meteohub,2013-04-25 21:22:00,
2013-04-25 17:27:00,82.0,66.4,30.12,SW,225,0.0,6.0,59,0.00,,,0.00,227.0,meteohub,2013-04-25 21:27:00,
2013-04-25 17:32:00,82.2,65.5,30.12,WSW,239,0.0,3.0,57,0.00,,,0.00,207.0,meteohub,2013-04-25 21:32:00,
2013-04-25 17:37:00,82.0,64.8,30.12,WSW,249,1.0,3.0,56,0.00,,,0.00,295.0,meteohub,2013-04-25 21:37:00,
2013-04-25 17:42:00,82.6,65.8,30.12,West,273,0.0,6.0,57,0.00,,,0.00,527.0,meteohub,2013-04-25 21:42:00,
2013-04-25 17:48:00,82.6,65.8,30.13,NNW,333,0.0,6.0,57,0.00,,,0.00,190.0,meteohub,2013-04-25 21:48:00,
2013-04-25 17:54:00,82.4,65.1,30.13,SW,235,0.0,6.0,56,0.00,,,0.00,118.0,meteohub,2013-04-25 21:54:00,
2013-04-25 18:00:00,81.7,64.9,30.13,West,266,0.0,5.0,57,0.00,,,0.00,113.0,meteohub,2013-04-25 22:00:00,
2013-04-25 18:07:00,81.1,65.5,30.13,West,266,0.0,5.0,59,0.00,,,0.00,148.0,meteohub,2013-04-25 22:07:00,
2013-04-25 18:12:00,81.0,66.2,30.13,West,267,0.0,5.0,61,0.00,,,0.00,153.0,meteohub,2013-04-25 22:12:00,
2013-04-25 18:17:00,81.0,66.2,30.13,West,267,0.0,5.0,61,0.00,,,0.00,137.0,meteohub,2013-04-25 22:17:00,
2013-04-25 18:22:00,81.0,65.8,30.13,North,0,0.0,5.0,60,0.00,,,0.00,186.0,meteohub,2013-04-25 22:22:00,
2013-04-25 18:27:00,81.0,66.2,30.13,WNW,292,0.0,5.0,61,0.00,,,0.00,250.0,meteohub,2013-04-25 22:27:00,
2013-04-25 18:34:00,81.9,65.7,30.13,WSW,243,0.0,2.0,58,0.00,,,0.00,281.0,meteohub,2013-04-25 22:34:00,
2013-04-25 18:41:00,82.0,64.8,30.13,SW,235,0.0,2.0,56,0.00,,,0.00,186.0,meteohub,2013-04-25 22:41:00,
2013-04-25 18:47:00,82.0,65.3,30.13,West,281,0.0,2.0,57,0.00,,,0.00,63.0,meteohub,2013-04-25 22:47:00,
2013-04-25 18:53:00,82.0,65.3,30.13,West,281,0.0,4.0,57,0.00,,,0.00,47.0,meteohub,2013-04-25 22:53:00,
2013-04-25 18:59:00,81.9,65.1,30.13,West,276,0.0,2.0,57,0.00,,,0.00,49.0,meteohub,2013-04-25 22:59:00,
2013-04-25 19:05:00,81.5,64.8,30.13,West,262,0.0,2.0,57,0.00,,,0.00,46.0,meteohub,2013-04-25 23:05:00,
2013-04-25 19:11:00,81.1,64.9,30.14,WSW,245,0.0,3.0,58,0.00,,,0.00,39.0,meteohub,2013-04-25 23:11:00,
2013-04-25 19:17:00,81.0,64.8,30.14,WSW,244,0.0,3.0,58,0.00,,,0.00,35.0,meteohub,2013-04-25 23:17:00,
2013-04-25 19:24:00,80.4,64.8,30.14,SW,231,0.0,3.0,59,0.00,,,0.00,28.0,meteohub,2013-04-25 23:24:00,
2013-04-25 19:30:00,80.1,65.5,30.14,SW,230,0.0,2.0,61,0.00,,,0.00,25.0,meteohub,2013-04-25 23:30:00,
2013-04-25 19:36:00,79.5,64.9,30.14,WSW,244,0.0,2.0,61,0.00,,,0.00,19.0,meteohub,2013-04-25 23:36:00,
2013-04-25 19:42:00,79.2,64.9,30.14,WSW,244,0.0,3.0,62,0.00,,,0.00,16.0,meteohub,2013-04-25 23:42:00,
2013-04-25 19:47:00,79.0,65.3,30.14,WSW,244,0.0,3.0,63,0.00,,,0.00,12.0,meteohub,2013-04-25 23:47:00,
2013-04-25 19:52:00,78.6,65.5,30.14,WSW,244,0.0,3.0,64,0.00,,,0.00,9.0,meteohub,2013-04-25 23:52:00,
2013-04-25 19:57:00,78.3,65.1,30.14,WSW,244,0.0,3.0,64,0.00,,,0.00,7.0,meteohub,2013-04-25 23:57:00,
2013-04-25 20:02:00,77.9,64.8,30.14,WSW,237,0.0,1.0,64,0.00,,,0.00,0.0,meteohub,2013-04-26 00:02:00,
2013-04-25 20:07:00,77.5,64.8,30.14,ESE,111,0.0,1.0,65,0.00,,,0.00,0.0,meteohub,2013-04-26 00:07:00,
2013-04-25 20:13:00,77.0,64.8,30.15,ESE,111,0.0,0.0,66,0.00,,,0.00,0.0,meteohub,2013-04-26 00:13:00,
2013-04-25 20:20:00,76.6,64.4,30.15,ESE,111,0.0,0.0,66,0.00,,,0.00,0.0,meteohub,2013-04-26 00:20:00,
2013-04-25 20:26:00,76.1,64.4,30.15,ESE,111,0.0,0.0,67,0.00,,,0.00,0.0,meteohub,2013-04-26 00:26:00,
2013-04-25 20:32:00,75.6,64.2,30.15,ESE,111,0.0,0.0,68,0.00,,,0.00,0.0,meteohub,2013-04-26 00:32:00,
2013-04-25 20:37:00,75.2,64.4,30.16,ESE,111,0.0,0.0,69,0.00,,,0.00,0.0,meteohub,2013-04-26 00:37:00,
2013-04-25 20:44:00,74.5,64.4,30.16,ESE,111,0.0,0.0,71,0.00,,,0.00,0.0,meteohub,2013-04-26 00:44:00,
2013-04-25 20:51:00,73.9,64.4,30.16,ESE,111,0.0,0.0,72,0.00,,,0.00,0.0,meteohub,2013-04-26 00:51:00,
2013-04-25 20:57:00,73.6,64.4,30.16,ESE,111,0.0,0.0,73,0.00,,,0.00,0.0,meteohub,2013-04-26 00:57:00,
2013-04-25 21:02:00,73.2,64.0,30.16,ESE,111,0.0,0.0,73,0.00,,,0.00,0.0,meteohub,2013-04-26 01:02:00,
2013-04-25 21:07:00,72.9,64.0,30.17,ESE,111,0.0,0.0,74,0.00,,,0.00,0.0,meteohub,2013-04-26 01:07:00,
2013-04-25 21:12:00,72.5,64.0,30.17,ESE,111,0.0,0.0,75,0.00,,,0.00,0.0,meteohub,2013-04-26 01:12:00,
2013-04-25 21:17:00,72.1,64.2,30.17,ESE,111,0.0,0.0,76,0.00,,,0.00,0.0,meteohub,2013-04-26 01:17:00,
2013-04-25 21:22:00,71.8,63.9,30.17,ESE,111,0.0,0.0,76,0.00,,,0.00,0.0,meteohub,2013-04-26 01:22:00,
2013-04-25 21:27:00,71.4,63.9,30.17,ESE,111,0.0,0.0,77,0.00,,,0.00,0.0,meteohub,2013-04-26 01:27:00,
2013-04-25 21:32:00,71.1,63.5,30.17,ESE,111,0.0,0.0,77,0.00,,,0.00,0.0,meteohub,2013-04-26 01:32:00,
2013-04-25 21:37:00,70.9,64.0,30.18,ESE,111,0.0,0.0,79,0.00,,,0.00,0.0,meteohub,2013-04-26 01:37:00,
2013-04-25 21:42:00,70.5,63.7,30.18,ESE,111,0.0,0.0,79,0.00,,,0.00,0.0,meteohub,2013-04-26 01:42:00,
2013-04-25 21:47:00,70.2,63.7,30.19,ESE,111,0.0,0.0,80,0.00,,,0.00,0.0,meteohub,2013-04-26 01:47:00,
2013-04-25 21:52:00,70.0,63.5,30.19,ESE,111,0.0,0.0,80,0.00,,,0.00,0.0,meteohub,2013-04-26 01:52:00,
2013-04-25 21:57:00,69.4,63.3,30.19,ESE,111,0.0,0.0,81,0.00,,,0.00,0.0,meteohub,2013-04-26 01:57:00,
2013-04-25 22:02:00,69.3,63.1,30.19,ESE,111,0.0,0.0,81,0.00,,,0.00,0.0,meteohub,2013-04-26 02:02:00,
2013-04-25 22:07:00,68.9,63.1,30.19,ESE,111,0.0,0.0,82,0.00,,,0.00,0.0,meteohub,2013-04-26 02:07:00,
2013-04-25 22:12:00,68.7,63.0,30.19,ESE,111,0.0,0.0,82,0.00,,,0.00,0.0,meteohub,2013-04-26 02:12:00,
2013-04-25 22:17:00,68.5,63.1,30.19,ESE,111,0.0,0.0,83,0.00,,,0.00,0.0,meteohub,2013-04-26 02:17:00,
2013-04-25 22:22:00,68.4,63.3,30.19,ESE,111,0.0,0.0,84,0.00,,,0.00,0.0,meteohub,2013-04-26 02:22:00,
2013-04-25 22:27:00,68.2,63.1,30.19,ESE,111,0.0,0.0,84,0.00,,,0.00,0.0,meteohub,2013-04-26 02:27:00,
2013-04-25 22:32:00,68.0,63.0,30.19,ESE,111,0.0,0.0,84,0.00,,,0.00,0.0,meteohub,2013-04-26 02:32:00,
2013-04-25 22:37:00,67.8,63.1,30.19,ESE,111,0.0,0.0,85,0.00,,,0.00,0.0,meteohub,2013-04-26 02:37:00,
2013-04-25 22:42:00,67.6,63.0,30.19,ESE,111,0.0,0.0,85,0.00,,,0.00,0.0,meteohub,2013-04-26 02:42:00,
2013-04-25 22:47:00,67.5,62.8,30.20,ESE,111,0.0,0.0,85,0.00,,,0.00,0.0,meteohub,2013-04-26 02:47:00,
2013-04-25 22:54:00,67.1,62.4,30.20,ESE,111,0.0,0.0,85,0.00,,,0.00,0.0,meteohub,2013-04-26 02:54:00,
2013-04-25 23:00:00,66.9,62.6,30.20,ESE,111,0.0,0.0,86,0.00,,,0.00,0.0,meteohub,2013-04-26 03:00:00,
2013-04-25 23:06:00,66.7,62.4,30.20,ESE,111,0.0,0.0,86,0.00,,,0.00,0.0,meteohub,2013-04-26 03:06:00,
2013-04-25 23:12:00,66.6,62.2,30.20,ESE,111,0.0,0.0,86,0.00,,,0.00,0.0,meteohub,2013-04-26 03:12:00,
2013-04-25 23:17:00,66.4,62.1,30.20,ESE,111,0.0,0.0,86,0.00,,,0.00,0.0,meteohub,2013-04-26 03:17:00,
2013-04-25 23:22:00,66.0,61.7,30.20,ESE,111,0.0,0.0,86,0.00,,,0.00,0.0,meteohub,2013-04-26 03:22:00,
2013-04-25 23:27:00,65.8,61.5,30.20,ESE,111,0.0,0.0,86,0.00,,,0.00,0.0,meteohub,2013-04-26 03:27:00,
2013-04-25 23:32:00,65.8,61.9,30.20,ESE,111,0.0,0.0,87,0.00,,,0.00,0.0,meteohub,2013-04-26 03:32:00,
2013-04-25 23:37:00,65.7,61.7,30.20,ESE,111,0.0,0.0,87,0.00,,,0.00,0.0,meteohub,2013-04-26 03:37:00,
2013-04-25 23:42:00,65.5,61.5,30.20,ESE,111,0.0,0.0,87,0.00,,,0.00,0.0,meteohub,2013-04-26 03:42:00,
2013-04-25 23:47:00,65.5,61.5,30.20,ESE,111,0.0,0.0,87,0.00,,,0.00,0.0,meteohub,2013-04-26 03:47:00,
2013-04-25 23:52:00,65.1,61.2,30.20,ESE,111,0.0,0.0,87,0.00,,,0.00,0.0,meteohub,2013-04-26 03:52:00,
2013-04-25 23:59:00,64.9,61.0,30.20,ESE,111,0.0,0.0,87,0.00,,,0.00,0.0,meteohub,2013-04-26 03:59:00,